Location: Trois-Rivi�res
(46.3500°N, 72.5500°W)
Time: 05:53:59
(UTC-04:00)

Daily predictions for brighter satellites

Satellite Brightness Start Highest point End
(mag) Time Altitude Azimuth Time Altitude Azimuth Time Altitude Azimuth
Cosmos 1455 Rocket 4.3 00:03:24 10° N 00:06:27 40° NNE 00:06:27 40° NNE
Gbstr 26 Del rocket 4.4 00:12:09 64° SE 00:12:09 64° SE 00:19:49 10° ENE
Cosmos 1125 Rocket 4.2 00:08:44 10° NNW 00:13:35 49° NE 00:13:35 49° NE
Cosmos 2315 Rocket 3.9 00:13:51 76° W 00:14:01 77° W 00:20:17 10° N
NOSS 3-1 (C) 4.2 00:13:49 29° W 00:16:41 49° NW 00:23:14 10° NE
Cosmos 1763 Rocket 3.9 00:21:57 58° NNE 00:21:57 58° NNE 00:26:13 10° NNE
ALOS 2 3.8 00:23:08 41° NNW 00:23:08 41° NNW 00:26:01 10° NNW
Cosmos 2333 Rocket 3.5 00:21:21 29° W 00:23:15 37° NW 00:28:36 10° NNE
Cosmos 2237 Rocket 3.1 00:26:25 40° W 00:27:23 44° NW 00:32:50 10° NNE
SL-08 ROCKET BODY 4.3 00:22:11 10° N 00:27:50 82° NNW 00:27:50 82° NNW
Cosmos 2278 Rocket 3.8 00:24:08 10° NW 00:27:48 24° W 00:27:48 24° W
ATLAS CENTAUR R/B 3.5 00:31:51 22° NE 00:31:51 22° NE 00:33:20 10° NE
Cosmos 1975 Rocket 4.5 00:32:11 35° NW 00:32:11 35° NW 00:35:19 10° N
USA 267 4.5 00:25:07 10° ENE 00:31:05 39° NNE 00:37:02 10° NW
NOSS 3-1 (A) 4.1 00:29:36 37° W 00:31:39 51° NW 00:38:15 10° NE
ATLAS 2AS CENTAUR R/B 3.1 00:32:49 58° ESE 00:32:54 58° ESE 00:40:49 10° NE
Nadezhda 1 Rocket 4.2 00:37:16 57° E 00:37:16 57° E 00:43:08 10° NNE
CZ-2C R/B 2.8 00:35:17 10° NNE 00:40:15 71° NNW 00:40:15 71° NNW
Cosmos 371 Rocket 4.1 00:44:25 50° N 00:44:25 50° N 00:48:13 10° NNE
Cosmos 2184 Rocket 3.9 00:38:52 10° N 00:45:12 82° W 00:45:12 82° W
Cosmos 2327 Rocket 4.4 00:45:01 10° N 00:50:49 76° WNW 00:50:49 76° WNW
Cosmos 2219 Rocket 4.4 00:53:26 11° W 00:57:10 19° NW 01:01:10 10° N
Meteor 1-19 Rocket 4.4 00:59:04 68° ENE 00:59:04 68° ENE 01:04:29 10° NNE
Cosmos 540 Rocket 4.1 01:01:13 51° NE 01:01:13 51° NE 01:05:07 10° NNE
Cosmos 1943 4.5 01:01:19 30° E 01:01:19 30° E 01:05:12 10° NE
Cosmos 841 Rocket 4.2 01:04:06 49° NW 01:04:06 49° NW 01:08:36 10° NNE
ATLAS 3B R/B 2.5 00:59:14 10° NW 01:06:04 84° WSW 01:06:04 84° WSW
Cosmos 2341 Rocket 4.1 01:02:03 10° N 01:08:14 62° ENE 01:08:32 62° E
Cosmos 1610 Rocket 4.5 01:06:02 10° NNW 01:12:19 73° W 01:12:19 73° W
CZ-4B R/B 4.3 01:18:29 15° NNW 01:18:29 15° NNW 01:19:12 10° NNW
Cosmos 1603 3.8 01:22:28 76° NNE 01:22:28 76° NNE 01:27:46 10° NNE
NOSS 2-3 (C) 4.3 01:22:57 65° N 01:22:57 65° N 01:28:10 10° NE
USA 238 DEB 3.6 01:16:00 10° NW 01:23:07 87° SW 01:23:51 74° SSE
USA 238 3.6 01:16:06 10° NW 01:23:13 88° SW 01:24:01 73° SSE
Cosmos 2154 Rocket 3.9 01:18:00 10° NNW 01:24:12 77° W 01:24:12 77° W
Cosmos 2369 Rocket 2.2 01:21:04 10° NNW 01:26:15 74° N 01:26:15 74° N
Cosmos 1607 4.4 01:25:25 10° NW 01:30:26 48° W 01:30:26 48° W
Cosmos 1025 Rocket 4.2 01:34:25 42° NNE 01:34:25 42° NNE 01:37:21 10° N
USA 215 3.3 01:33:12 10° ENE 01:39:38 61° SE 01:39:38 61° SE
H-2A R/B 4.0 01:36:20 10° NNE 01:38:27 31° N 01:38:27 31° N
COSMOS 2455 4.2 01:34:48 10° NNW 01:40:20 36° NE 01:45:50 10° ESE
Meteor 1-23 Rocket 4.2 01:44:49 81° NNW 01:44:49 81° NNW 01:50:10 10° N
Cosmos 1943 Rocket 2.4 01:40:11 10° NNW 01:45:50 64° ENE 01:46:26 60° E
SL-16 R/B 3.8 01:46:54 23° WNW 01:48:27 26° NW 01:53:14 10° N
Cosmos 1238 Rocket 4.1 01:51:04 48° NW 01:51:04 48° NW 01:56:10 10° N
NOSS 3-2 (C) 4.2 01:47:13 10° NW 01:54:34 69° NE 02:02:37 10° SE
Cosmos 2058 Rocket 3.8 01:55:18 10° N 01:58:35 49° N 01:58:35 49° N
Cosmos 1461 4.3 01:59:17 10° NNW 02:01:40 33° NNW 02:01:40 33° NNW
Meteor 1-15 Rocket 4.5 01:57:49 10° NNW 02:03:10 57° WNW 02:03:10 57° WNW
CENTAUR R/B 4.2 01:58:08 10° NNW 02:05:15 41° NE 02:12:58 10° ESE
Cosmos 292 Rocket 4.2 02:05:52 57° ENE 02:05:52 57° ENE 02:10:08 10° NNE
Cosmos 1538 Rocket 3.9 02:07:59 80° NE 02:07:59 80° NE 02:12:54 10° NNE
ATLAS CENTAUR R/B 3.6 02:08:06 17° NW 02:08:42 18° NW 02:11:28 10° N
Cosmos 2181 Rocket 4.0 02:08:48 64° WSW 02:09:27 68° W 02:15:55 10° N
Cosmos 2218 Rocket 3.8 02:03:49 10° N 02:10:06 88° W 02:10:48 72° S
SL-16 R/B 3.8 02:06:35 13° SE 02:11:24 36° ENE 02:16:57 10° N
USA 267 3.4 02:07:03 10° ESE 02:13:34 73° NNE 02:20:06 10° NW
Cosmos 2366 rocket 3.9 02:07:35 10° N 02:13:58 88° E 02:14:57 66° S
Cosmos 1892 Rocket 4.1 02:16:10 56° NNW 02:16:10 56° NNW 02:19:51 10° N
Cosmos 44 Rocket 3.9 02:12:42 10° NW 02:16:04 46° NW 02:16:04 46° NW
Meteor 2-21 4.3 02:15:44 10° N 02:21:55 88° W 02:22:52 66° S
NOSS 3-4 (A) 3.7 02:22:20 51° SSE 02:23:12 55° ESE 02:29:32 10° NE
NOSS 3-4 (C) 3.7 02:22:26 50° SSE 02:23:18 54° ESE 02:29:38 10° NE
Cosmos 864 Rocket 4.4 02:17:45 10° N 02:24:06 83° W 02:25:13 63° S
ATLAS 2AS CENTAUR R/B 3.8 02:20:13 27° W 02:24:14 47° NW 02:32:04 10° NE
SL-8 Rocket 4.0 02:19:58 10° NNW 02:26:00 57° W 02:26:20 56° WSW
Cosmos 1656 Rocket 3.9 02:22:54 10° NNW 02:28:18 63° ENE 02:30:32 34° SE
Cosmos 1602 Rocket 3.9 02:32:50 60° E 02:32:50 60° E 02:37:11 10° NNE
Helios 1A Rocket 3.8 02:29:30 10° N 02:32:40 43° NNW 02:32:40 43° NNW
IRS-P3 4.1 02:28:39 10° NNE 02:34:00 71° ESE 02:34:45 61° SSE
NOSS 3-2 (A) 3.9 02:28:12 10° NW 02:35:36 66° WSW 02:38:59 37° S
Cosmos 773 Rocket 3.9 02:40:19 67° W 02:40:41 70° WNW 02:45:53 10° NNE
Cosmos 1943 3.8 02:43:07 40° W 02:44:08 44° NW 02:49:34 10° NNE
Cosmos 2228 4.1 02:42:11 10° NNW 02:45:12 34° NW 02:45:12 34° NW
UNK 4.3 02:48:48 34° SE 02:50:30 54° ENE 02:54:59 10° N
Genesis I 4.1 02:47:07 10° NW 02:49:52 43° NNW 02:49:52 43° NNW
Cosmos 2112 Rocket 4.2 02:50:18 52° SSE 02:51:20 64° ESE 02:56:34 10° NNE
Aureole 1 Rocket 3.3 02:51:19 66° S 02:51:57 78° ESE 02:56:12 10° NNE
ATLAS 3B R/B 4.4 02:51:42 10° WNW 02:53:17 14° W 02:53:17 14° W
NPP 3.6 02:56:31 10° NNE 03:01:56 76° WNW 03:03:10 54° SW
Nadezhda 3 Rocket 4.0 03:01:16 42° S 03:03:37 88° E 03:10:00 10° N
Cosmos 1624 Rocket 4.4 02:59:22 10° NNW 03:04:33 62° ENE 03:09:23 12° SE
Resurs 1-4 Rocket 2.6 03:01:07 10° NNE 03:06:17 54° E 03:08:31 32° SSE
Lacrosse 5 rocket 3.1 03:05:58 23° SE 03:06:41 24° SE 03:10:25 10° ENE
Cosmos 2369 Rocket 4.2 03:06:44 10° WNW 03:08:01 13° WNW 03:08:01 13° WNW
EXPRESS MD2 4.3 03:02:59 10° WNW 03:11:02 66° N 03:14:51 10° E
Spot 4 Rocket 4.2 03:06:19 10° NNE 03:11:30 70° ESE 03:13:24 39° S
SL-08 R/B 3.7 03:12:21 45° W 03:12:21 45° W 03:16:49 10° NNW
Cosmos 1544 3.1 03:09:07 10° N 03:12:49 73° E 03:13:06 68° ESE
Cosmos 1805 3.4 03:08:54 10° N 03:12:51 69° E 03:13:40 51° SE
Cosmos 1271 Rocket 3.3 03:09:21 10° N 03:13:04 53° ENE 03:14:11 37° SE
CZ-2D R/B 2.3 03:11:15 10° NNE 03:16:34 65° ESE 03:18:56 33° S
Cosmos 2056 Rocket 3.6 03:12:36 10° NNW 03:17:59 75° ENE 03:23:14 10° SSE
USA 161 4.0 03:17:35 12° ESE 03:19:32 22° ENE 03:21:51 10° NNE
Cosmos 1812 Rocket 3.8 03:15:39 10° NNW 03:19:54 49° W 03:19:57 49° W
Cosmos 921 Rocket 3.5 03:17:06 10° NNW 03:21:33 63° ENE 03:25:38 12° SSE
USA 215 3.7 03:16:18 10° NE 03:22:39 55° NNW 03:26:58 21° W
CBERS-1 4.3 03:17:48 10° N 03:22:47 54° WNW 03:24:07 42° WSW
Cosmos 1680 Rocket 3.7 03:23:12 43° WSW 03:24:43 60° WNW 03:29:56 10° NNE
RESURS DK-1 2.2 03:25:43 61° SW 03:26:24 82° WNW 03:30:34 10° NNE
COSMOS 2455 3.0 03:20:41 10° NW 03:26:28 50° WSW 03:29:08 30° S
Cosmos 1842 3.1 03:28:16 63° SW 03:28:43 73° W 03:32:37 10° N
ADEOS 3.6 03:23:30 10° NNE 03:28:45 82° ESE 03:31:11 33° S
Cosmos 1766 4.0 03:25:10 10° NNW 03:28:34 39° WNW 03:28:34 39° WNW
Cosmos 1943 Rocket 3.7 03:24:54 10° NW 03:27:54 20° W 03:27:54 20° W
Meteor 1-4 Rocket 3.7 03:29:01 10° NNW 03:31:48 31° WNW 03:31:48 31° WNW
IRS-1D 3.5 03:30:41 10° NNE 03:35:54 83° WNW 03:38:24 32° SSW
Cosmos 1953 Rocket 3.7 03:35:11 30° S 03:37:16 72° E 03:41:45 10° NNE
Cosmos 192 4.3 03:35:33 40° SW 03:37:17 72° WNW 03:42:14 10° NNE
COSMOS 2406 3.2 03:35:40 35° SW 03:38:14 78° WNW 03:44:02 10° NNE
NOSS 2-2 (E) 4.1 03:36:50 33° S 03:38:20 50° ESE 03:42:59 10° NE
SL-27 R/B 2.4 03:43:36 54° SW 03:44:17 75° WNW 03:47:55 10° NNE
MOZ.5/SAFIR/RUBIN 5/SL-8 3.9 03:40:25 10° SSE 03:45:02 78° ENE 03:49:45 10° N
ARIANE 5 R/B 2.5 03:41:51 10° N 03:47:05 72° WNW 03:49:48 29° SSW
Cosmos 1821 Rocket 4.1 03:41:39 10° NNW 03:47:34 55° W 03:51:18 23° SSW
CZ-2D R/B 3.9 03:43:51 10° NNE 03:47:53 56° E 03:50:23 21° S
COBE Rocket 3.9 03:45:10 10° N 03:50:16 79° WNW 03:53:04 26° SSW
Cosmos 1452 Rocket 3.9 03:47:46 10° NNW 03:53:00 64° ENE 03:58:13 10° SSE
Cosmos 1371 Rocket 4.4 03:48:32 10° NNW 03:53:37 44° WSW 03:56:33 23° SSW
SL-16 R/B 2.9 03:51:39 24° SSW 03:54:56 43° W 04:00:47 10° NNW
ADEOS Rocket 3.1 03:49:48 10° N 03:55:42 67° WNW 04:00:01 22° SSW
Cosmos 1707 3.7 03:52:33 14° SSE 03:55:42 45° E 03:59:26 10° NNE
CENTAUR R/B 3.0 03:48:47 10° NW 03:56:34 71° WSW 04:04:55 10° SSE
USA 267 3.6 03:50:49 10° SSE 03:56:52 39° SW 04:02:57 10° WNW
Cosmos 1825 Rocket 3.9 03:58:07 31° SW 03:59:52 49° WNW 04:04:10 10° N
Cosmos 1470 2.7 03:56:21 10° N 04:00:16 90° WSW 04:03:45 13° S
Cosmos 1953 2.6 03:57:38 10° NNW 04:01:28 44° W 04:02:57 30° SW
GEOS 3 Rocket 3.8 03:57:22 10° NE 04:02:38 68° NW 04:05:55 24° SW
Cosmos 1605 Rocket 3.9 04:02:01 10° NNW 04:08:15 70° W 04:14:19 10° S
Cosmos 1934 Rocket 4.3 04:03:37 10° NNW 04:09:38 49° W 04:14:55 14° SSW
Cosmos 1818 3.7 04:07:00 21° SSW 04:10:44 76° ESE 04:16:13 10° NE
Okean O Rocket 3.3 04:07:37 10° NNE 04:11:39 33° E 04:15:37 10° SSE
ADEOS II 3.5 04:07:30 10° NNE 04:12:21 36° E 04:17:09 10° SSE
COSMOS 2487 3.5 04:09:56 13° S 04:12:48 43° ESE 04:16:13 10° NNE
UNKNOWN OBJECT B 2.9 04:09:39 10° N 04:13:35 62° WNW 04:16:04 22° SSW
NOSS 2-2 (D) 3.5 04:11:50 25° SW 04:14:15 89° SE 04:19:06 10° NE
Cosmos 839 Rocket 4.1 04:08:03 10° NW 04:14:16 66° WSW 04:21:31 10° SSE
NOSS 3-4 (A) 4.4 04:09:46 16° W 04:14:21 40° NW 04:20:33 10° NNE
NOSS 3-4 (C) 4.4 04:09:52 16° W 04:14:27 40° NW 04:20:40 10° NNE
Cosmos 1378 4.0 04:11:46 10° S 04:15:23 50° E 04:19:02 10° NNE
Cosmos 1339 Rocket 4.5 04:11:00 10° S 04:17:04 88° E 04:23:14 10° N
Cosmos 1758 4.4 04:14:22 10° NNW 04:17:52 27° W 04:19:10 22° WSW
NOSS 2-2 (C) 3.7 04:29:42 18° SW 04:32:41 65° NW 04:37:35 10° NE
Tiangong 1 2.0 04:33:00 22° SW 04:33:44 24° SSW 04:36:07 10° SE
PSLV R/B 4.2 04:30:14 10° NNE 04:34:20 69° ESE 04:38:26 10° S
Abrixas 3.0 04:34:03 12° WNW 04:36:29 51° N 04:39:15 10° E
Cosmos 1733 4.0 04:34:51 10° NNW 04:38:16 31° W 04:41:23 11° SSW
Cosmos 2100 Rocket 4.0 04:33:08 10° N 04:39:23 89° E 04:45:32 10° S
Cosmos 2098 Rocket 3.2 04:37:35 10° NNW 04:40:09 26° W 04:41:44 16° SW
Cosmos 1697 Rocket 3.0 04:36:10 10° NNW 04:41:49 72° ENE 04:47:24 10° SSE
MOS 1 Rocket 3.4 04:40:51 10° N 04:45:02 51° WNW 04:49:21 10° SSW
Lacrosse 5 rocket 1.8 04:41:40 14° WSW 04:45:38 69° NW 04:50:17 10° NE
Resurs 1-4 Rocket 3.4 04:41:39 10° N 04:45:47 24° WNW 04:49:36 11° WSW
Cosmos 389 Rocket 3.5 04:42:40 10° NNW 04:45:48 27° W 04:48:53 10° SSW
Cosmos 2278 3.8 04:40:26 10° NW 04:46:01 56° WSW 04:51:35 10° S
Cosmos 2173 Rocket 4.0 04:40:20 10° N 04:46:41 88° W 04:52:54 10° S
Cosmos 1842 Rocket 3.5 04:44:46 10° NNW 04:49:09 67° W 04:53:32 10° S
USA 161 3.2 04:48:13 14° WSW 04:49:21 17° W 04:51:23 10° NW
Cosmos-2242 4.0 04:46:42 10° NNW 04:50:31 29° W 04:54:18 10° SSW
CZ-4B R/B 3.1 04:47:23 10° NNE 04:51:40 85° ESE 04:56:07 10° SSW
Cosmos 2369 3.9 04:47:57 10° NW 04:53:30 50° WSW 04:58:59 10° S
CZ-2D R/B 3.6 04:52:18 10° NNW 04:56:08 21° WNW 04:59:55 10° WSW
PSLV R/B 3.8 04:52:44 10° NNE 04:57:08 75° ESE 05:01:28 10° S
Meteor 2-5 Rocket 3.9 04:54:13 10° SSW 04:59:49 58° WNW 05:05:36 10° N
EO 1 Del DPAF 3.2 04:56:47 10° SSE 05:00:38 86° WSW 05:04:31 10° NNW
MTI 3.7 04:59:55 10° SSE 05:03:09 83° WSW 05:06:25 10° NNW
Cosmos 2061 Rocket 4.0 04:57:44 10° NNW 05:03:59 71° W 05:10:07 10° S
Cosmos 2221 2.6 05:05:51 10° N 05:10:10 84° E 05:14:26 10° S
Cosmos 1980 Rocket 2.5 05:09:46 10° NNW 05:15:30 79° ENE 05:21:11 10° SSE
Cosmos 2082 Rocket 2.3 05:10:28 10° SSW 05:16:11 79° WNW 05:21:56 10° NNE
Meteor 2-1 Rocket 4.3 05:11:06 10° NNW 05:16:40 64° W 05:22:20 10° S
Cosmos 1833 Rocket 2.7 05:11:47 10° SSW 05:17:24 83° WNW 05:23:04 10° NNE
